Del Rio, TX

8:23 PM CDT on March 27, 2017 (GMT -0500)
Del Rio International

Weather History for KDRT - December, 2012

Change the Weather History Date:

Tuesday, December 11, 2012

  Actual Average Record
Temperature  
Mean Temperature 43 °F 53 °F  
Max Temperature 57 °F 64 °F 89 °F (1987)
Min Temperature 29 °F 41 °F 24 °F (1966)
Degree Days  
Heating Degree Days 22 12  
Month to date heating degree days 48 125  
Since 1 July heating degree days 154 322  
Cooling Degree Days 0 0  
Month to date cooling degree days 21 0  
Year to date cooling degree days 4108 3372  
Moisture  
Dew Point 20 °F    
Average Humidity 47    
Maximum Humidity 69    
Minimum Humidity 24    
Precipitation  
Precipitation 0.00 in 0.02 in 0.76 in (1905)
Month to date precipitation T 0.21  
Year to date precipitation 13.83 19.08  
Sea Level Pressure  
Sea Level Pressure 30.12 in    
Wind  
Wind Speed 4 mph (ESE)    
Max Wind Speed 14 mph    
Max Gust Speed 20 mph    
Visibility 10 miles    
Events      
T = Trace of Precipitation, MM = Missing Value Source: NWS Daily Summary

Daily Weather History Graph

Daily Weather History Graph

Search for Another Location

Airport or City:

Trip Planner

Search our weather history database for the weather conditions in past years. The results will help you decide how hot, cold, wet, or windy it might be!

Date:

Astronomy

Dec. 11, 2012 Rise Set
Actual Time 7:28 AM CST 5:46 PM CST
Civil Twilight 7:02 AM CST 6:12 PM CST
Nautical Twilight 6:32 AM CST 6:41 PM CST
Astronomical Twilight 6:03 AM CST 7:10 PM CST
Moon 5:29 AM CST (12/11) 4:23 PM CST (12/11)
Length of Visible Light 11h 10m
Length of Day
10h 17m
Waning Crescent, 4% of the Moon is Illuminated
Dec 11
Waning Crescent
Dec 13
New
Dec 19
First Quarter
Dec 28
Full
Jan 4
Last Quarter

Hourly Weather History & Observations

Time (CST) Temp. Windchill Dew Point Humidity Pressure Visibility Wind Dir Wind Speed Gust Speed Precip Events Conditions
12:53 AM 42.1 °F 40.2 °F 19.9 °F 41% 30.07 in 10.0 mi ENE 3.5 mph - N/A   Clear
1:53 AM 39.9 °F 36.7 °F 19.0 °F 43% 30.07 in 10.0 mi East 4.6 mph - N/A   Clear
2:53 AM 39.0 °F 35.7 °F 19.0 °F 45% 30.07 in 10.0 mi East 4.6 mph - N/A   Clear
3:53 AM 37.9 °F 34.4 °F 19.9 °F 48% 30.08 in 10.0 mi East 4.6 mph - N/A   Clear
4:53 AM 36.0 °F - 19.9 °F 52% 30.08 in 10.0 mi Calm Calm - N/A   Clear
5:53 AM 33.1 °F - 19.9 °F 59% 30.11 in 10.0 mi Calm Calm - N/A   Clear
6:53 AM 30.9 °F - 19.9 °F 64% 30.12 in 10.0 mi Calm Calm - N/A   Clear
7:53 AM 30.9 °F - 21.0 °F 67% 30.15 in 10.0 mi Calm Calm - N/A   Clear
8:53 AM 37.9 °F 35.5 °F 21.0 °F 51% 30.16 in 10.0 mi SSE 3.5 mph - N/A   Clear
9:53 AM 43.0 °F 37.7 °F 19.0 °F 38% 30.18 in 10.0 mi SE 9.2 mph 19.6 mph N/A   Clear
10:53 AM 46.9 °F - 18.0 °F 32% 30.17 in 10.0 mi SE 8.1 mph - N/A   Clear
11:53 AM 50.0 °F - 19.0 °F 29% 30.15 in 10.0 mi SSE 11.5 mph - N/A   Clear
12:53 PM 50.0 °F - 19.0 °F 29% 30.11 in 10.0 mi SE 4.6 mph - N/A   Clear
1:53 PM 54.0 °F - 19.0 °F 25% 30.08 in 10.0 mi Variable 3.5 mph - N/A   Clear
2:53 PM 55.0 °F - 19.9 °F 25% 30.06 in 10.0 mi ESE 5.8 mph - N/A   Clear
3:53 PM 55.9 °F - 19.0 °F 24% 30.05 in 10.0 mi Calm Calm - N/A   Clear
4:53 PM 55.9 °F - 19.0 °F 24% 30.06 in 10.0 mi SSE 5.8 mph - N/A   Clear
5:53 PM 52.0 °F - 19.9 °F 28% 30.08 in 9.0 mi SSE 4.6 mph - N/A   Clear
6:53 PM 51.1 °F - 21.0 °F 31% 30.10 in 10.0 mi SE 4.6 mph - N/A   Clear
7:53 PM 48.9 °F - 21.0 °F 33% 30.14 in 10.0 mi East 4.6 mph - N/A   Clear
8:53 PM 45.0 °F 41.8 °F 21.9 °F 40% 30.14 in 10.0 mi ESE 5.8 mph - N/A   Clear
9:53 PM 41.0 °F - 21.9 °F 47% 30.17 in 10.0 mi Calm Calm - N/A   Clear
10:53 PM 41.0 °F 38.0 °F 21.0 °F 45% 30.19 in 10.0 mi East 4.6 mph - N/A   Clear
11:53 PM 39.9 °F 35.1 °F 21.0 °F 47% 30.20 in 10.0 mi East 6.9 mph - N/A   Clear